Lexington Weather

Lexington, Massachusetts, USA

34°F
10/30/2020 6:31am 
  • Lexington Conditions: Light snow, Mist, Overcast
  • Temperature: 34.3°F / 1.3°CColder 1.3°F than last hour.
  • Dew Point: 33.6°FDecreased 1.3°Fsince last hour.
  • Relative Humidity: 97
  • Wind: Wind from NNE NNE 2 mph, 10-min avg: 2 mph, gust: 4 mph
  • Barometer: 29.75 in Steady
  • Visibility: 5 miles
  • Rain Today: 0.09 in
  •   
Southeast Middlesex County - Winter Weather Advisory
 - SEE ALL NEARBY ALERTS -

Regional Weather Roundup
for Boston / Norton, MA

        
000
ASUS41 KBOX 250704
RWRBOX

REGIONAL WEATHER ROUNDUP
NATIONAL WEATHER SERVICE BOSTON/NORTON MA
300 AM EDT SUN OCT 25 2020

NOTE:  "FAIR" INDICATES FEW OR NO CLOUDS BELOW 12,000 FEET WITH NO 
SIGNIFICANT WEATHER AND/OR OBSTRUCTIONS TO VISIBILITY.

MAZALL-250800-
EASTERN MASSACHUSETTS
  
CITY           SKY/WX    TMP DP  RH WIND       PRES   REMARKS
BOSTON         MOCLDY    46  32  58 NW9       30.10R                  
BEVERLY        CLOUDY    44  33  65 NW8       30.09R                  
LAWRENCE       MOCLDY    42  33  70 NW3       30.12R                  
BEDFORD        MOCLDY    39  33  79 W5        30.10R                  
BLUE HILL        N/A     41  33  73 NW10      30.07R                  
NORWOOD        MOCLDY    44  33  65 N3        30.10R                  
MARSHFIELD     CLOUDY    48  36  61 VRB7G14   30.07S                  
PLYMOUTH       CLOUDY    47  34  60 NW12      30.07R                  
TAUNTON        CLOUDY    47  34  60 VRB7      30.09R                  
NEW BEDFORD    PTCLDY    46  34  62 N6        30.07R                  
$$

MAZALL-250800-
CAPE COD AND THE ISLANDS
  
CITY           SKY/WX    TMP DP  RH WIND       PRES   REMARKS
FALMOUTH       PTCLDY    45  36  70 N8        30.06R                  
HYANNIS        PTCLDY    50  42  74 N15G22    30.03R                  
CHATHAM        PTCLDY    52  41  66 N7        30.05R                  
PROVINCETOWN   MOCLDY    50  40  68 N16G22    30.07R                  
NANTUCKET      CLOUDY   N/A N/A N/A N20       30.03R                  
MARTHAS VNYRD  CLEAR     47  37  68 N8        30.05R                  
$$
 
MAZALL-250800-
CENTRAL AND WESTERN MASSACHUSETTS
  
CITY           SKY/WX    TMP DP  RH WIND       PRES   REMARKS
WORCESTER      MOCLDY    39  31  72 NW6       30.09R                  
FITCHBURG      MOCLDY    38  33  82 CALM      30.12R                  
ORANGE         MOCLDY    40  30  67 N7        30.13R                  
SPRINGFIELD    MOCLDY    41  31  69 N6        30.11R                  
WESTFIELD      MOCLDY    41  34  76 N6        30.12R                  
NORTH ADAMS    CLOUDY    43  31  62 W8        30.14R                  
PITTSFIELD     MOCLDY    39  31  72 N5        30.11R                  
$$
 
RIZALL-250800-
RHODE ISLAND
  
CITY           SKY/WX    TMP DP  RH WIND       PRES   REMARKS
PROVIDENCE     MOCLDY    45  34  65 N9        30.10R                  
NEWPORT        PTCLDY    45  34  65 N13G28    30.07R                  
BLOCK ISLAND   CLEAR     46  35  65 N14G23    30.08R                  
SMITHFIELD     MOCLDY    41  35  79 N10       30.10R                  
WESTERLY       PTCLDY    45  32  60 N12       30.10R                  
$$
 
CTZALL-250800-
CONNECTICUT
  
CITY           SKY/WX    TMP DP  RH WIND       PRES   REMARKS
BRADLEY INTL   MOCLDY    43  33  68 N6        30.12R                  
HARTFORD       MOCLDY    47  33  58 N10       30.12R                  
BRIDGEPORT     PTCLDY    45  35  68 N8        30.12R                  
DANBURY        PTCLDY    42  31  64 N8          N/A                   
GROTON         PTCLDY    46  34  62 N15G23    30.09R                  
NEW HAVEN      PTCLDY    47  36  65 N7        30.11R                  
CHESTER        FAIR      45  36  70 N8        30.10R                  
MERIDEN        PTCLDY    45  35  68 N8        30.11R                  
WILLIMANTIC    MOCLDY    44  33  65 N7        30.11R                  
OXFORD         PTCLDY    40  35  83 N9        30.11R                  
$$

MEZ002-015-021-024-NHZ003-005-008-011-012-014-VTZ005-008-250800-
NORTHERN NEW ENGLAND
  
CITY           SKY/WX    TMP DP  RH WIND       PRES   REMARKS
PORTLAND ME    PTCLDY    42  32  67 N3        30.09R                  
BANGOR ME      CLOUDY    42  33  70 N7        30.07R                  
CONCORD NH     PTCLDY    39  30  70 NW6       30.11R                  
MANCHESTER NH  MOCLDY    44  31  60 NW8       30.10R                  
NASHUA NH      MOCLDY    36  35  96 NW8       30.12R WCI  30          
PORTSMOUTH NH  CLOUDY    44  32  63 W3        30.08                   
JAFFREY NH     PTCLDY    38  28  67 CALM      30.10R                  
KEENE NH       PTCLDY    37  32  82 CALM      30.13R                  
BURLINGTON VT  CLOUDY    42  30  62 NW14      30.20R                  
MT. WASHINGTON FOG       18  18 100 W28G40      N/A  VSB 1/16WCI  -1  
$$

NYZ052-076-250800-
EASTERN NEW YORK
  
CITY           SKY/WX    TMP DP  RH WIND       PRES   REMARKS
ALBANY         PTCLDY    36  30  79 NW6       30.17S WCI  31          
NEW YORK CITY  PTCLDY    49  35  58 N14       30.12R                  
$$
 
ANZALL-250800-
MARINE OBSERVATIONS
  
STATION/POSITION TIME  TEMP    WIND        PRES    VSBY  WAVE
                       AIR SEA DIR/SP/G                  HT/PER
                 (UTC) (F)     (DEG/KT/KT) (MB)    (MI)  (FT/S)
BOSTON BUOY      0650   49 58  340/ 17/ 21 1017.5R         6/ 9
BUZZARDS BAY     0600          350/ 20/ 22 1018.3R
NANTUCKET SOUND  0650      62  350/ 17/ 21   N/A           2/ 3
MASS BAY-STELLWA 0604   49 57  330/ 16/ 19 1017.2R  1 7/8  7/11
ISLE OF SHOALS   NOT AVBL
S OF BLOCK IS    0626      62                N/A           7/13
$$

......................KEY.........................
  SKY/WX - SKY CONDITION/PRESENT WEATHER
  TMP    - TEMPERATURE IN FAHRENHEIT
  DWPT   - DEWPOINT IN FAHRENHEIT
  RH     - RELATIVE HUMIDITY IN PERCENT
  WIND   - DIRECTION AND SPEED IN MPH
  PRES   - MEAN SEA LEVEL PRESSURE IN INCHES OF HG
  WCI    - WIND CHILL INDEX
  VSB    - VISIBILITY IN MILES
  HX     - HEAT INDEX
  TC     - TEMPERATURE IN CELSIUS
  VRB    - VARIABLE WIND DIRECTION
  N/A    - NOT AVAILABLE
  
      

Other recent Regional Weather Roundups

Fri Oct 30, 6:04am

Fri Oct 30, 5:04am

Fri Oct 30, 4:04am

Fri Oct 30, 3:04am

Fri Oct 30, 2:04am

Fri Oct 30, 1:04am

Fri Oct 30, 12:04am

Thu Oct 29, 11:04pm

Thu Oct 29, 10:04pm

Thu Oct 29, 9:04pm

Thu Oct 29, 8:04pm

Thu Oct 29, 7:04pm

Thu Oct 29, 6:04pm

Thu Oct 29, 5:05pm

Thu Oct 29, 4:05pm

Thu Oct 29, 3:05pm

Thu Oct 29, 2:04pm

Thu Oct 29, 1:04pm

Thu Oct 29, 12:04pm

Thu Oct 29, 11:04am

Thu Oct 29, 10:04am

Thu Oct 29, 9:04am

Thu Oct 29, 8:04am

Thu Oct 29, 7:04am

Thu Oct 29, 6:04am

Thu Oct 29, 5:04am

Thu Oct 29, 4:04am

Thu Oct 29, 3:04am

Thu Oct 29, 2:04am

Thu Oct 29, 1:05am

Thu Oct 29, 12:04am

Wed Oct 28, 11:05pm

Wed Oct 28, 10:04pm

Wed Oct 28, 9:04pm

Wed Oct 28, 8:04pm

Wed Oct 28, 7:05pm

Wed Oct 28, 6:04pm

Wed Oct 28, 5:05pm

Wed Oct 28, 4:04pm

Wed Oct 28, 3:04pm

Wed Oct 28, 2:04pm

Wed Oct 28, 1:05pm

Wed Oct 28, 12:05pm

Wed Oct 28, 11:05am

Wed Oct 28, 10:04am

Wed Oct 28, 9:04am

Wed Oct 28, 8:04am

Wed Oct 28, 7:04am

Wed Oct 28, 6:04am

Wed Oct 28, 5:05am

Wed Oct 28, 4:04am

Wed Oct 28, 3:04am

Wed Oct 28, 2:04am

Wed Oct 28, 1:05am

Wed Oct 28, 12:04am

Tue Oct 27, 11:04pm

Tue Oct 27, 10:04pm

Tue Oct 27, 9:05pm

Tue Oct 27, 8:04pm

Tue Oct 27, 7:04pm

Tue Oct 27, 6:04pm

Tue Oct 27, 5:04pm

Tue Oct 27, 4:05pm

Tue Oct 27, 3:04pm

Tue Oct 27, 2:04pm

Tue Oct 27, 1:04pm

Tue Oct 27, 12:04pm

Tue Oct 27, 11:04am

Tue Oct 27, 10:04am

Tue Oct 27, 9:04am

Tue Oct 27, 8:04am

Tue Oct 27, 7:04am

Tue Oct 27, 6:04am

Tue Oct 27, 5:04am

Tue Oct 27, 4:04am

Tue Oct 27, 3:04am

Tue Oct 27, 2:05am

Tue Oct 27, 1:04am

Tue Oct 27, 12:04am

Mon Oct 26, 11:05pm

Mon Oct 26, 10:04pm

Mon Oct 26, 9:04pm

Mon Oct 26, 8:04pm

Mon Oct 26, 7:04pm

Mon Oct 26, 6:04pm

Mon Oct 26, 5:04pm

Mon Oct 26, 4:05pm

Mon Oct 26, 2:04pm

Mon Oct 26, 1:04pm

Mon Oct 26, 12:04pm

Mon Oct 26, 11:05am

Mon Oct 26, 10:04am

Mon Oct 26, 9:04am

Mon Oct 26, 8:04am

Mon Oct 26, 7:04am

Mon Oct 26, 6:04am

Mon Oct 26, 5:04am

Mon Oct 26, 4:04am

Mon Oct 26, 3:04am

Mon Oct 26, 2:04am

Mon Oct 26, 1:04am

Mon Oct 26, 12:04am

Sun Oct 25, 11:05pm

Sun Oct 25, 10:04pm

Sun Oct 25, 9:04pm

Sun Oct 25, 8:04pm

Sun Oct 25, 7:04pm

Sun Oct 25, 6:04pm

Sun Oct 25, 5:04pm

Sun Oct 25, 4:05pm

Sun Oct 25, 3:04pm

Sun Oct 25, 2:04pm

Sun Oct 25, 1:04pm

Sun Oct 25, 12:04pm

Sun Oct 25, 11:04am

Sun Oct 25, 10:04am

Sun Oct 25, 9:04am

Sun Oct 25, 8:04am

Sun Oct 25, 7:04am

Sun Oct 25, 6:04am

Sun Oct 25, 5:04am

Sun Oct 25, 4:04am

Sun Oct 25, 2:04am

Sun Oct 25, 1:05am

Sun Oct 25, 12:04am

Sat Oct 24, 11:04pm

Sat Oct 24, 10:04pm

Sat Oct 24, 9:04pm

Sat Oct 24, 8:04pm

Sat Oct 24, 7:04pm

Sat Oct 24, 6:04pm

Sat Oct 24, 5:05pm

Sat Oct 24, 4:04pm

Sat Oct 24, 3:04pm

Sat Oct 24, 2:04pm

Sat Oct 24, 1:05pm

Sat Oct 24, 12:04pm

Sat Oct 24, 11:05am

Sat Oct 24, 10:05am

Sat Oct 24, 9:04am

Sat Oct 24, 8:04am

Sat Oct 24, 7:04am

Sat Oct 24, 6:04am

Sat Oct 24, 5:04am

Sat Oct 24, 4:04am

Sat Oct 24, 3:04am

Sat Oct 24, 2:04am

Sat Oct 24, 1:05am

Sat Oct 24, 12:04am

Fri Oct 23, 11:04pm

Fri Oct 23, 10:04pm

Fri Oct 23, 9:04pm

Fri Oct 23, 8:05pm

Fri Oct 23, 7:04pm

Fri Oct 23, 6:04pm

Fri Oct 23, 5:05pm

Fri Oct 23, 4:04pm

Fri Oct 23, 3:04pm

Fri Oct 23, 2:05pm

Fri Oct 23, 1:04pm

Fri Oct 23, 12:04pm

Fri Oct 23, 11:04am

Fri Oct 23, 10:04am

Fri Oct 23, 9:04am

Fri Oct 23, 8:04am

Fri Oct 23, 7:04am

Meta data:

ID: 73c1c6cc-e2ab-4e6f-ab4d-1a859ce723d8
Link: https://api.weather.gov/products/73c1c6cc-e2ab-4e6f-ab4d-1a859ce723d8